Theta_e
299 300 299 300 299 299 300 300 301 302 301 300 300 300 300 301 301 296 290 296 292 286 286 285 287 284 284 282 279 280 282 286 285 279 277 276 274 279 278 281 282 283 281 280 277 274 274 284 283 282 286 283 282 283
299 300 300 299 300 299 299 300 300 301 302 301 300 300 300 300 301 296 286 291 292 289 283 287 287 288 288 288 285 283 282 282 286 277 279 276 277 280 275 277 284 282 286 283 280 280 285 284 283 286 285 283 282 282
299 299 300 300 299 300 299 299 300 300 301 301 300 300 300 300 300 294 286 289 289 285 283 285 283 288 290 289 290 286 280 287 286 286 280 279 277 280 278 278 279 284 284 284 284 283 283 286 285 285 284 284 282 285
299 299 299 300 300 299 299 299 299 300 301 301 301 300 300 299 300 297 288 289 288 284 281 278 290 288 292 290 289 289 290 288 287 287 283 280 277 282 279 281 281 281 282 282 279 283 286 285 285 286 286 283 282 284
299 299 299 300 300 299 299 299 298 299 300 300 301 300 300 299 299 295 292 292 293 287 279 276 281 285 290 291 290 290 291 288 286 283 282 280 280 279 282 282 280 282 281 282 282 285 287 288 286 285 283 284 283 281
299 298 298 299 300 300 299 299 298 298 299 300 301 300 299 298 296 291 284 290 294 293 284 276 280 284 286 289 289 289 288 289 287 285 281 283 282 280 272 277 282 283 283 286 285 285 285 286 284 280 281 283 279 279
299 299 299 299 299 299 299 299 299 298 299 300 301 300 299 298 289 281 278 289 295 294 284 280 279 284 285 285 285 285 285 285 285 285 284 282 283 282 278 276 281 283 286 283 283 284 284 281 286 277 276 278 273 270
298 299 299 299 299 300 300 299 299 298 298 300 300 299 299 299 295 288 290 296 294 287 285 278 276 278 285 280 279 285 281 284 284 285 284 281 281 281 277 282 284 283 281 281 284 284 285 279 276 275 275 273 273 272
298 298 298 299 299 299 300 299 299 298 298 300 300 299 294 289 285 285 294 294 289 285 280 276 269 268 283 280 277 279 276 274 279 276 278 280 279 277 279 278 280 281 283 285 280 277 276 277 278 276 277 273 275 273
297 298 297 298 299 299 299 299 300 298 298 299 291 285 282 282 293 291 285 283 283 283 279 274 267 271 279 274 275 272 271 275 274 270 274 278 272 282 278 278 281 282 279 279 277 275 275 277 278 278 278 275 273 272
294 296 297 297 298 298 298 299 299 299 299 287 283 280 285 291 283 276 276 277 279 274 272 267 270 272 278 270 274 276 272 272 268 268 271 265 269 279 279 279 278 279 279 277 278 278 282 281 279 277 274 273 273 270
292 293 296 296 297 298 298 299 299 295 287 288 286 286 284 282 277 275 273 270 272 271 265 274 274 270 274 275 277 274 271 270 266 267 269 264 270 273 264 274 268 268 273 270 268 271 273 277 278 277 273 271 270 267
291 292 293 297 297 298 298 299 299 295 290 285 282 278 278 277 272 271 269 270 270 266 267 273 274 275 275 275 274 273 268 266 264 263 265 268 268 262 259 258 264 262 267 268 265 267 269 269 272 273 271 268 266 263
290 291 292 295 296 297 297 298 299 293 286 281 277 270 273 269 268 269 272 270 270 267 272 268 271 269 267 270 274 271 265 264 261 260 266 268 265 264 259 258 271 268 263 265 265 266 268 268 266 266 264 263 263 262
288 290 291 292 295 296 296 298 298 291 285 279 278 272 270 266 260 261 266 269 264 276 275 270 271 270 260 265 260 262 261 261 262 267 270 267 265 262 264 265 268 271 270 269 267 268 267 266 265 261 259 257 258 256
287 288 287 291 293 295 296 296 293 285 284 280 277 267 259 264 258 261 267 270 266 273 264 266 267 263 261 262 259 261 261 262 266 263 261 258 261 265 266 271 271 271 269 268 266 264 264 266 264 261 259 257 255 258
286 282 288 290 292 293 295 289 285 282 281 278 273 258 266 269 273 269 271 273 270 271 267 264 263 267 264 262 259 260 263 266 262 257 254 256 264 263 263 266 266 267 267 265 264 261 261 259 260 259 259 254 252 250
281 284 288 290 290 289 288 288 282 281 278 275 270 265 260 268 269 268 269 274 275 266 264 267 265 261 265 263 262 265 261 260 256 254 256 255 256 255 258 260 257 261 261 261 261 260 260 260 260 257 253 250 251 252
283 284 288 290 289 285 284 281 284 278 275 264 265 268 265 267 264 272 274 277 267 264 268 262 263 265 268 265 266 257 258 258 260 257 253 250 253 257 257 256 255 255 255 252 254 256 254 253 256 254 252 251 253 250
286 287 288 290 290 282 279 280 284 276 272 269 269 270 268 266 269 273 275 270 270 265 265 264 269 269 267 262 259 261 263 264 265 262 255 255 253 253 254 256 256 254 256 254 253 253 253 253 250 249 249 251 254 252
285 284 287 286 281 279 276 272 278 273 268 264 261 274 268 267 271 272 274 271 272 266 265 258 259 258 257 255 255 256 266 269 271 268 268 259 253 255 254 254 254 253 253 255 255 251 252 252 251 249 251 251 249 250
278 285 279 281 276 273 271 270 270 268 268 265 265 269 268 263 265 269 272 272 270 258 257 256 257 257 257 255 256 255 261 262 262 262 260 260 258 256 256 256 257 253 253 252 253 254 251 250 250 251 254 252 253 253
282 279 276 274 270 269 267 269 269 269 268 270 272 270 268 268 266 269 265 261 258 259 258 258 257 257 257 258 258 260 260 264 263 263 262 260 258 259 258 255 256 257 255 251 249 251 252 252 253 253 252 252 252 252
281 273 270 268 269 266 263 267 269 268 270 271 270 265 266 265 267 263 256 255 258 261 261 261 261 260 260 259 257 256 258 261 262 261 261 262 259 256 256 254 255 254 253 253 252 252 252 250 252 252 250 249 248 249
267 263 266 264 263 264 258 265 266 266 264 264 264 263 259 262 259 256 252 252 256 256 257 259 263 262 259 257 258 259 260 261 262 260 259 261 259 258 258 257 256 253 254 257 254 254 252 251 254 252 250 250 252 250
257 256 257 254 260 262 263 263 265 263 262 262 262 262 255 254 254 250 249 251 253 255 256 256 257 261 260 260 260 260 259 262 263 260 260 262 262 261 259 258 258 257 256 257 257 257 256 255 256 257 256 256 256 255
250 250 253 256 254 254 260 260 261 262 260 259 259 258 253 251 248 247 250 253 253 255 257 257 258 261 260 260 261 261 261 262 262 260 261 261 261 262 262 260 259 259 259 259 259 257 258 257 257 257 257 255 254 252
254 250 249 251 250 250 247 250 250 249 250 250 251 245 244 245 243 248 251 254 255 256 258 258 258 258 257 259 261 261 260 261 261 261 261 260 260 260 261 261 262 263 260 260 260 259 259 259 259 257 256 255 254 252
250 251 252 248 249 247 247 247 247 249 250 247 244 244 244 248 249 250 252 254 256 255 254 255 257 259 258 258 257 258 258 260 262 259 258 257 258 257 260 260 260 260 260 261 265 262 260 259 258 257 256 255 253 251
249 252 249 248 247 245 248 250 249 251 251 250 250 250 249 250 252 254 254 253 253 253 253 254 254 255 255 256 255 256 257 258 258 259 258 256 256 258 259 259 259 259 260 260 259 260 263 258 258 255 255 254 253 253
252 249 249 249 248 251 252 254 254 254 253 252 252 250 250 251 252 254 253 253 254 254 253 253 253 253 253 252 253 255 254 257 259 258 258 258 258 257 258 258 258 259 259 259 258 258 257 256 255 255 254 253 253 252
252 249 249 248 249 253 255 254 253 252 252 251 250 251 250 249 247 251 254 253 252 251 252 253 252 252 254 254 255 255 256 256 259 259 258 258 257 257 258 258 258 258 258 258 257 257 257 256 255 255 254 253 252 252
253 253 253 253 252 253 256 254 252 251 250 249 249 250 249 248 246 251 255 255 253 252 252 253 254 254 254 254 254 255 255 255 258 261 262 261 260 259 257 257 258 258 257 257 257 256 256 255 255 254 254 253 253 252
Wind_Speed
17 16 15 14 13 12 11 9 5 13 10 8 5 4 2 2 3 4 1 2 3 1 3 5 3 3 2 2 3 3 3 1 2 3 2 3 3 5 1 3 5 5 4 4 3 2 8 6 3 8 5 2 3 3
18 17 17 16 15 15 14 13 9 6 12 11 9 7 5 3 4 4 1 1 2 2 5 2 4 4 4 6 4 2 2 2 4 3 1 2 2 2 4 3 4 4 4 3 6 6 2 4 2 3 0 2 2 1
19 19 18 18 16 16 15 15 14 8 9 13 12 10 8 6 6 6 2 2 3 2 4 0 8 5 3 6 3 4 3 4 1 3 4 3 3 3 4 6 2 2 1 3 3 3 3 6 6 5 3 5 2 1
20 19 19 18 18 17 16 15 15 13 10 11 14 11 9 6 9 9 3 2 3 3 2 6 2 4 1 4 6 4 2 2 3 1 2 3 3 3 3 1 2 4 5 5 4 5 6 3 1 6 6 5 3 2
21 20 20 19 19 18 17 17 17 16 13 11 15 13 10 7 5 4 2 2 2 3 3 4 3 3 3 3 5 5 5 4 3 3 4 5 1 3 0 0 4 5 8 5 6 8 6 7 3 4 3 8 6 1
23 22 22 19 19 20 18 18 17 16 15 12 16 14 12 9 11 3 1 2 3 3 2 3 3 1 1 2 4 5 1 2 3 4 4 3 2 3 3 5 7 6 5 6 5 5 7 6 3 3 2 8 2 3
24 23 22 21 21 21 20 19 18 17 16 13 16 16 14 14 4 4 6 2 7 3 2 3 3 1 0 2 1 1 1 2 3 4 4 4 4 6 3 5 7 8 9 3 2 5 2 4 5 5 6 4 1 3
27 24 23 23 21 21 21 19 19 18 17 15 17 16 15 17 5 2 2 9 5 2 1 3 3 1 3 2 2 1 2 1 3 2 3 3 3 3 6 15 8 6 3 4 8 5 5 2 2 2 4 3 2 4
28 28 27 25 23 22 22 21 19 19 18 16 16 18 4 2 2 2 5 8 3 1 3 3 5 5 2 1 1 1 1 1 2 2 2 3 4 8 11 7 8 9 11 12 5 5 4 3 3 2 3 3 2 3
21 26 28 26 24 22 22 23 20 20 18 13 5 3 3 3 17 10 3 2 2 3 2 4 2 3 3 1 0 2 1 2 2 5 0 4 6 14 8 8 9 10 9 9 6 4 3 4 7 6 4 1 2 1
17 23 28 28 27 25 24 25 23 22 20 3 3 3 1 11 4 2 3 4 4 4 4 4 5 5 2 4 3 3 2 1 1 5 3 4 8 12 10 13 10 9 10 9 5 3 8 6 10 7 4 4 4 4
21 16 23 29 28 27 26 28 26 16 5 8 8 6 3 3 2 4 5 1 5 8 2 6 4 4 2 2 3 1 3 2 6 1 0 6 7 8 3 8 4 4 8 7 4 7 4 8 10 11 10 6 4 2
24 23 18 27 30 28 27 29 30 19 18 3 4 5 5 4 6 9 9 5 4 4 5 5 4 3 2 1 3 3 3 5 1 1 7 9 4 4 4 2 2 3 8 8 7 6 8 8 7 6 9 4 4 4
22 23 20 18 21 32 26 29 31 25 6 4 8 6 8 6 7 7 6 7 6 5 8 4 3 4 1 3 2 3 0 3 1 3 10 5 5 3 3 2 8 6 5 8 7 7 9 10 9 9 7 5 4 4
23 22 23 23 22 26 31 28 31 11 5 5 6 9 9 4 1 1 1 3 2 8 9 5 4 3 1 5 2 4 4 5 7 8 5 3 2 3 3 3 6 7 8 7 6 7 9 8 9 8 5 3 4 4
27 24 19 25 22 20 28 24 16 5 4 6 6 4 1 4 2 1 3 4 3 7 3 4 5 4 3 6 4 9 7 9 7 6 4 2 3 3 3 5 7 8 8 8 7 6 6 8 8 8 6 5 4 4
28 11 21 27 25 22 23 10 4 7 8 7 5 1 5 4 8 5 4 5 4 6 5 5 6 9 5 3 3 6 9 6 5 3 2 3 5 6 5 8 7 8 8 7 6 5 5 5 7 5 6 0 1 1
12 9 22 27 24 12 5 11 6 8 9 5 7 6 3 2 6 4 3 9 8 4 4 7 7 4 7 8 6 7 5 1 0 2 3 1 3 4 3 8 4 6 7 6 6 5 5 6 6 4 4 3 3 3
11 9 22 25 20 9 9 9 6 5 1 4 4 5 4 4 1 3 6 10 2 2 6 3 4 5 6 5 5 3 3 4 5 2 2 2 2 4 7 6 6 6 6 4 3 4 3 3 4 3 3 3 3 0
19 18 22 28 23 7 5 4 5 6 6 5 5 6 5 5 4 4 8 3 3 3 2 3 6 4 4 2 2 2 3 6 10 6 2 2 2 4 4 4 3 5 6 6 5 4 3 3 3 2 2 3 4 3
15 8 20 10 3 1 1 4 2 4 6 5 3 7 5 3 4 4 5 3 2 4 3 3 2 2 2 3 1 3 6 10 9 6 9 6 2 4 3 4 5 3 3 3 4 2 3 2 2 2 2 2 2 2
1 15 3 3 3 3 2 3 2 2 3 6 5 4 6 3 4 4 6 2 1 0 1 1 2 2 3 3 2 2 2 6 6 8 12 13 7 5 5 5 5 3 3 3 4 5 3 1 1 2 3 2 3 4
9 4 4 3 4 2 2 1 2 1 5 9 7 6 3 3 3 2 5 3 1 1 1 1 2 1 1 2 3 6 5 5 6 6 8 6 5 6 7 4 4 6 5 0 1 3 3 1 3 4 3 3 3 3
7 4 3 4 2 3 2 3 1 2 3 4 6 6 4 4 3 4 4 1 1 4 3 3 1 2 3 5 4 3 3 4 8 7 5 8 9 4 4 4 4 3 3 4 2 3 3 3 3 4 3 4 3 3
7 5 3 4 3 3 3 4 1 3 2 2 6 4 3 3 5 4 3 3 3 4 6 6 4 3 3 2 2 3 5 3 6 9 4 6 10 8 6 5 4 2 1 5 3 3 2 2 3 3 3 3 5 4
9 7 7 7 5 2 2 4 4 4 4 3 3 4 3 5 6 3 2 4 3 4 6 6 4 2 4 4 2 3 3 2 6 7 4 2 4 7 9 8 5 2 1 3 5 4 4 2 4 5 5 5 5 4
8 7 4 4 3 6 3 5 3 5 6 5 4 2 4 7 4 1 3 4 3 4 5 5 5 3 4 5 5 5 5 6 7 7 6 7 7 5 4 6 5 2 3 4 4 4 4 4 4 4 4 2 3 3
6 5 6 8 5 6 4 5 7 7 4 4 3 9 6 5 1 3 2 5 5 5 4 5 6 6 6 6 5 6 7 7 10 10 10 10 8 7 7 6 5 8 4 3 4 3 3 3 4 4 4 4 3 2
5 2 3 7 6 7 8 7 5 3 3 3 5 4 4 3 3 3 4 6 4 5 7 7 7 5 7 8 8 8 6 3 3 10 12 7 3 5 4 4 4 3 3 2 4 6 5 4 4 4 5 4 3 2
4 3 5 8 7 8 7 4 6 6 7 7 9 14 12 9 8 8 8 9 9 8 7 7 7 7 7 7 8 11 9 8 7 4 6 5 3 2 3 4 4 3 3 3 4 6 9 6 6 3 4 3 3 3
1 4 6 5 7 7 8 11 11 14 14 14 11 12 10 5 7 12 13 10 8 8 9 10 10 9 9 9 8 7 8 8 9 10 8 5 5 5 4 4 3 3 3 4 4 4 4 3 4 4 4 4 4 3
3 5 8 13 12 9 10 10 11 14 10 11 8 5 4 4 7 7 11 10 10 10 12 9 8 8 7 6 6 6 9 5 6 6 7 6 5 5 4 4 4 4 5 5 5 5 5 5 4 3 3 3 2 2
11 11 10 7 6 6 4 4 5 6 6 4 6 5 5 5 7 5 5 8 7 7 6 6 5 5 7 8 8 6 8 7 12 12 11 11 10 8 4 4 4 4 5 4 4 4 4 4 3 2 2 3 3 4
Wind_Direction
233 229 230 235 226 221 229 231 240 211 202 201 203 212 199 159 179 135 226 23 135 172 256 200 223 170 119 131 158 250 52 257 86 162 148 219 191 218 171 227 181 162 175 160 105 147 264 154 68 169 223 181 186 199
232 232 230 228 230 221 221 225 224 217 213 202 201 200 193 167 212 105 102 4 109 160 242 218 249 255 244 191 156 239 225 194 181 111 230 52 222 194 162 244 326 192 188 172 186 217 303 262 1 278 344 197 241 268
233 232 231 227 228 223 219 221 228 216 219 207 198 203 195 194 192 135 147 165 79 68 289 169 245 260 186 213 175 222 280 229 237 155 158 204 242 123 179 228 186 203 188 144 22 302 309 293 316 290 319 320 330 207
233 235 232 230 225 227 217 220 222 224 229 212 200 200 197 210 227 159 147 213 105 133 263 280 351 263 245 198 201 197 191 79 63 111 143 197 179 139 248 247 175 188 128 182 242 300 319 26 206 288 292 287 284 248
232 231 233 232 228 221 222 215 219 219 223 221 201 196 189 185 208 112 106 208 206 159 236 269 312 245 259 216 223 210 194 158 141 190 191 211 204 106 204 40 253 188 177 177 222 191 163 250 260 342 310 264 238 160
228 230 231 231 229 221 219 218 213 217 217 225 203 186 179 170 128 89 315 213 183 130 276 286 256 221 331 228 229 213 189 240 199 170 195 197 173 153 152 218 248 217 208 181 210 184 202 194 264 138 178 284 265 183
225 225 226 228 228 222 216 217 210 212 211 218 197 179 176 167 115 149 184 201 162 141 254 281 274 31 144 104 121 197 159 213 249 177 195 173 190 163 164 236 235 228 229 215 146 119 307 207 213 180 149 262 244 95
230 229 222 222 225 222 212 210 207 207 206 214 190 174 178 175 152 202 199 133 128 147 249 255 254 309 183 161 208 213 214 201 242 219 138 162 137 179 228 231 206 221 210 237 200 204 171 79 30 40 93 66 238 147
221 225 227 220 219 220 211 203 202 198 200 212 184 169 139 90 143 162 105 108 78 178 244 203 164 235 185 147 143 334 161 245 320 258 232 141 162 221 226 169 181 200 199 225 144 128 125 170 193 81 78 46 207 193
236 222 221 222 212 214 212 199 194 191 191 183 100 136 157 206 121 109 52 147 186 210 230 226 71 186 150 131 235 80 353 235 233 248 95 219 247 242 211 206 195 205 184 140 137 229 133 220 190 167 170 169 270 217
252 235 222 221 214 207 209 196 187 182 174 110 144 119 158 123 69 62 188 200 171 233 191 216 178 149 252 122 181 198 198 236 212 259 169 257 259 246 192 214 213 206 182 190 195 176 178 156 146 141 138 120 120 166
240 252 238 219 218 208 204 195 183 177 164 152 118 102 113 143 135 188 197 174 205 217 205 158 188 171 170 128 124 220 181 102 242 263 36 264 254 237 269 243 246 173 145 139 129 129 123 118 132 136 133 148 164 144
232 238 254 221 214 210 201 195 184 146 114 89 100 125 153 160 199 200 190 205 205 177 188 172 141 133 121 95 81 124 143 223 52 69 233 233 247 273 250 189 58 57 96 106 96 84 90 90 84 109 111 91 138 143
239 233 235 233 205 210 204 193 182 147 108 177 155 166 213 181 229 187 192 173 209 132 148 118 110 131 169 84 125 161 203 63 332 246 238 247 243 225 181 191 136 136 118 123 122 116 117 113 106 84 97 121 140 135
244 237 232 245 200 202 207 196 177 156 153 181 177 196 202 201 55 217 92 105 263 146 134 99 71 89 16 102 60 99 45 249 215 233 235 245 175 139 121 118 128 126 124 107 103 111 106 113 110 100 80 101 97 104
234 238 231 229 230 193 199 207 186 155 186 177 193 120 3 84 307 209 180 135 210 136 76 63 122 95 218 136 104 210 143 221 243 220 233 164 119 107 104 90 100 105 100 101 93 90 103 107 113 117 100 70 80 124
239 229 227 227 214 217 199 188 177 190 178 196 201 84 145 172 172 164 154 155 156 138 175 131 125 196 106 82 254 191 205 220 216 246 225 212 158 150 123 114 107 110 112 106 100 86 100 101 104 100 115 171 102 101
231 215 210 210 202 206 209 204 204 208 174 166 158 173 189 133 120 131 144 148 152 179 133 196 127 134 187 179 245 227 206 171 347 188 172 119 113 98 105 126 97 103 111 112 108 110 128 136 137 142 145 152 98 54
222 194 203 211 191 180 198 206 178 200 127 144 98 113 119 118 87 114 140 152 79 146 115 62 114 186 216 216 214 212 186 173 153 166 63 17 82 113 113 96 95 96 108 112 113 116 112 110 131 153 148 133 108 155
220 208 218 199 186 193 246 193 128 133 175 179 104 129 120 121 130 119 136 106 118 114 82 178 214 215 189 246 251 205 142 146 134 112 34 349 30 105 104 122 115 118 110 96 85 87 99 73 36 76 129 162 158 149
210 179 200 175 149 146 343 335 132 107 130 115 160 124 93 72 111 141 141 166 110 199 226 224 257 272 258 252 224 273 149 162 166 161 155 148 192 124 102 91 106 77 103 117 118 77 77 120 194 196 126 67 56 69
232 135 120 84 96 89 59 14 21 58 82 140 105 88 116 120 136 157 124 147 145 334 217 269 283 300 336 340 309 289 92 100 98 95 85 115 136 138 147 151 125 119 124 150 151 148 157 174 91 69 74 52 55 49
108 78 62 60 72 83 111 210 102 359 118 152 132 101 135 130 164 116 80 60 101 250 219 232 275 311 69 356 48 48 37 111 99 107 118 106 102 104 115 113 124 133 130 227 165 121 117 111 78 86 70 60 60 54
101 70 117 133 110 123 1 67 22 93 90 168 115 108 143 134 131 55 103 69 16 1 28 12 13 7 21 30 40 360 358 80 102 86 99 124 117 84 86 94 87 75 98 124 104 93 75 72 89 91 83 91 79 96
93 1 28 94 26 137 92 113 150 93 112 29 109 130 205 115 82 63 88 360 5 7 0 347 9 50 97 49 13 14 17 89 123 113 41 102 115 108 93 83 75 81 123 113 99 106 99 109 103 101 99 96 104 92
73 12 37 6 341 345 142 130 166 122 95 58 74 106 64 87 76 88 16 334 326 359 355 350 332 360 53 38 72 56 4 47 103 95 89 98 122 131 132 131 127 76 71 125 130 129 122 101 109 114 101 86 92 104
57 355 4 51 353 310 342 7 17 64 72 34 18 44 75 76 85 0 327 13 328 331 328 332 332 51 88 84 59 43 46 59 83 95 90 75 65 58 92 118 118 120 132 129 121 120 132 136 125 118 115 97 76 91
54 41 22 355 37 14 30 28 32 33 26 2 47 36 67 47 79 312 332 319 323 326 356 33 39 47 54 47 63 80 80 89 97 101 91 65 54 52 56 61 73 92 87 102 116 114 119 130 127 124 112 104 94 63
59 6 73 43 37 29 37 21 18 2 0 44 83 76 84 52 319 347 330 346 6 30 35 30 30 50 64 60 52 42 29 11 123 107 97 101 89 40 20 55 66 67 75 72 131 117 115 110 108 108 102 100 100 93
3 17 77 41 49 28 10 1 62 55 71 85 95 104 95 78 52 37 33 28 29 36 36 40 35 40 47 58 62 55 34 30 30 64 100 99 95 79 55 53 58 57 65 80 71 68 79 70 84 71 79 75 65 65
8 55 71 67 86 99 96 92 91 83 82 89 92 88 91 108 69 39 29 21 25 32 40 42 44 34 40 37 35 53 54 21 42 54 67 74 72 63 58 56 56 61 70 82 87 91 102 84 91 102 99 93 78 70
70 64 101 109 111 132 128 97 84 78 68 58 50 33 35 47 60 31 9 8 16 24 25 34 39 33 26 35 39 44 40 21 32 56 55 63 63 56 52 48 46 59 77 83 85 91 96 103 103 97 100 85 59 29
88 101 111 115 144 167 183 86 72 85 40 49 43 32 31 56 74 13 358 11 16 7 359 3 26 36 38 43 39 37 35 25 23 36 62 73 70 68 58 47 50 56 74 82 83 91 89 94 90 82 60 28 3 351